{"data":{"norad_id":58895,"intl_designator":"2024-020V","name":"STARLINK-31218","alt_names":[],"object_type":"PAYLOAD","status":"ACTIVE","operator":null,"country":"US","launch_date":"2024-01-29","launch_site_code":"AFWTR","launch_vehicle":null,"mission":null,"orbit_class":"UNKNOWN","rcs_meters":null,"size_class":null,"mass_kg":null,"dimensions":null,"purposes":["comms"],"wikipedia_slug":null,"has_3d_model":false,"image_url":null,"decayed_at":null,"tle_current":{"epoch":"2026-05-24T20:24:14.421888Z","epoch_age_seconds":81198,"freshness":"FRESH","line1":"1 58895U 24020V   26144.85016692 -.00000351  00000+0  46479-6 0  9992","line2":"2 58895  53.1609 328.5179 0001538  90.4128 269.7049 15.31708552129733","mean_motion":15.31708552,"eccentricity":0.0001538,"inclination_deg":53.1609,"raan_deg":328.5179,"arg_perigee_deg":90.4128,"mean_anomaly_deg":269.7049,"bstar":4.6479e-7,"rev_number":12973,"period_min":94.012663056542,"perigee_km":469.66114891622,"apogee_km":471.76785563832,"semimajor_km":6848.8515022773,"source":"CELESTRAK","updated_at":"2026-05-25T13:38:18.787480Z"}}}